カタログに戻る

STARLINK-32320

運用中通信VLEO
NORAD 61638·PAYLOAD·🇺🇸 United States

打ち上げ Oct 23, 2024 から Cape Canaveral Space Force Station

Loading…

次のパス (今後24時間)

TLE

最新Source: CelesTrak SupGP

元期: Sep 14, 2026, 22:33 UTC

1 61638C 24191T   26257.94006944 -.00038778  00000+0 -14046-2 0  2577
2 61638  43.0012 169.6129 0001395 266.8335 135.2510 15.27596756    12

AllMySatでSTARLINK-32320をリアルタイム追跡

Download on the App Store